Location: N�rnberg
(49.4471°N, 11.0632°E)
Time: 16:14:35
(UTC+01:00)

ARIANE 6 FM1 Upper Stage - Pass Details

Date: 18 February 2026
Orbit: 523 x 607 km, 62.0° (Epoch: 7 March)

Event Time Altitude Azimuth Distance (km) Brightness Sun altitude
Rises 18:37:09 0° 314° (NW) 2,662 6.7 -9.9°
Reaches altitude 10° 18:39:20 10° 314° (NW) 1,768 5.8 -10.2°
Maximum altitude 18:43:18 86° 227° (SW) 532 2.5 -10.9°
Drops below altitude 10° 18:47:16 10° 138° (SE) 1,771 4.9 -11.5°
Enters shadow 18:48:21 - 138° (SE) 2,205 5.3 -11.7°
